{"data":{"norad_id":53587,"epoch":"2026-09-20T23:12:36.339264Z","epoch_age_seconds":106410,"freshness":"FRESH","line1":"1 53587U 22103A   26263.96708726  .00000621  00000+0  74930-4 0  9995","line2":"2 53587  97.7944 339.6617 0026584  95.9590 264.4657 14.87047716221326","mean_motion":14.87047716,"eccentricity":0.0026584,"inclination_deg":97.7944,"raan_deg":339.6617,"arg_perigee_deg":95.959,"mean_anomaly_deg":264.4657,"bstar":7.493e-5,"rev_number":22132,"period_min":96.836166352042,"perigee_km":588.59609911291,"apogee_km":625.73555718963,"semimajor_km":6985.3028281513,"source":"CELESTRAK","updated_at":"2026-09-21T09:00:09.101054Z"}}